Plattsburgh, NY

4:53 PM EST on December 08, 2019 (GMT -0500)
Plattsburgh International

Weather History for KPBG - October, 2019

Change the Weather History Date:

Sunday, October 27, 2019

  Actual Average Record
Temperature  
Mean Temperature 42 °F 44 °F  
Max Temperature 50 °F 53 °F 72 °F (1963)
Min Temperature 34 °F 34 °F 24 °F (1976)
Degree Days  
Heating Degree Days 23 21  
Month to date heating degree days 433 457  
Since 1 July heating degree days 625 692  
Cooling Degree Days 0 0  
Month to date cooling degree days 0 0  
Year to date cooling degree days 406 345  
Moisture  
Dew Point 43 °F    
Average Humidity 89    
Maximum Humidity 96    
Minimum Humidity 80    
Precipitation  
Precipitation 1.08 in - 1.13 in (1958)
Month to date precipitation 4.42 0.00  
Year to date precipitation 26.04  
Sea Level Pressure  
Sea Level Pressure 29.95 in    
Wind  
Wind Speed 8 mph ()    
Max Wind Speed 22 mph    
Max Gust Speed 30 mph    
Visibility 7.5 miles    
Events Rain    
T = Trace of Precipitation, MM = Missing Value Source: Averaged Metar Reports

Daily Weather History Graph

Daily Weather History Graph

Search for Another Location

Airport or City:

Astronomy

Oct. 27, 2019 Rise Set
Actual Time 7:24 AM EDT 5:50 PM EDT
Civil Twilight 6:54 AM EDT 6:20 PM EDT
Nautical Twilight 6:20 AM EDT 6:54 PM EDT
Astronomical Twilight 5:46 AM EDT 7:28 PM EDT
Moon 6:25 AM EDT (10/27) 6:01 PM EDT (10/27)
Length of Visible Light 11h 25m
Length of Day
10h 25m
Waning Crescent, 0% of the Moon is Illuminated
Oct 27
Waning Crescent
Oct 27
New
Nov 4
First Quarter
Nov 12
Full
Nov 19
Last Quarter

Hourly Weather History & Observations

Time (EDT) Temp. Windchill Dew Point Humidity Pressure Visibility Wind Dir Wind Speed Gust Speed Precip Events Conditions
12:53 AM 34.0 °F - 33.1 °F 96% 30.22 in 10.0 mi Calm Calm - N/A   Clear
1:53 AM 34.0 °F - 32.0 °F 92% 30.20 in 10.0 mi Calm Calm - N/A   Clear
2:53 AM 35.1 °F - 33.1 °F 92% 30.19 in 10.0 mi Calm Calm - N/A   Clear
3:53 AM 37.0 °F - 35.1 °F 93% 30.14 in 10.0 mi Calm Calm - N/A   Partly Cloudy
4:53 AM 45.0 °F 40.6 °F 39.9 °F 82% 30.13 in 10.0 mi South 8.1 mph - 0.00 in Rain Light Rain
5:53 AM 46.0 °F 41.9 °F 41.0 °F 83% 30.10 in 10.0 mi South 8.1 mph - 0.00 in Rain Light Rain
6:53 AM 46.9 °F - 43.0 °F 86% 30.05 in 10.0 mi SSE 16.1 mph 24.2 mph 0.00 in Rain Light Rain
7:53 AM 46.0 °F 40.6 °F 43.0 °F 89% 30.06 in 7.0 mi SSE 11.5 mph - 0.02 in Rain Light Rain
8:22 AM 46.0 °F 40.6 °F 44.1 °F 93% 30.05 in 2.5 mi SSE 11.5 mph - 0.08 in Rain Rain
8:53 AM 46.0 °F 41.0 °F 44.1 °F 93% 30.06 in 4.0 mi South 10.4 mph - 0.18 in Rain Rain
9:34 AM 46.0 °F 39.6 °F 44.1 °F 93% 30.03 in 2.5 mi South 15.0 mph - 0.15 in Rain Heavy Rain
9:45 AM 46.0 °F 39.9 °F 44.1 °F 93% 30.02 in 2.5 mi SSE 13.8 mph - 0.22 in Rain Heavy Rain
9:53 AM 46.9 °F - 44.1 °F 90% 30.03 in 2.5 mi SSE 16.1 mph 24.2 mph 0.26 in Rain Heavy Rain
10:25 AM 46.0 °F 40.6 °F 44.1 °F 93% 30.00 in 1.5 mi South 11.5 mph 25.3 mph 0.24 in Rain Heavy Rain
10:34 AM 46.0 °F 40.2 °F 44.1 °F 93% 30.00 in 2.0 mi South 12.7 mph - 0.30 in Rain Heavy Rain
10:43 AM 46.0 °F 39.6 °F 44.1 °F 93% 29.99 in 3.0 mi SSE 15.0 mph 23.0 mph 0.33 in Rain Heavy Rain
10:53 AM 46.0 °F 39.3 °F 43.0 °F 89% 30.00 in 4.0 mi South 16.1 mph 28.8 mph 0.36 in Rain Rain
11:37 AM 46.0 °F 39.9 °F 43.0 °F 89% 29.94 in 7.0 mi SSE 13.8 mph 24.2 mph 0.09 in Rain Light Rain
11:53 AM 46.0 °F 39.3 °F 43.0 °F 89% 29.93 in 7.0 mi South 16.1 mph 25.3 mph 0.14 in Rain Light Rain
12:53 PM 46.0 °F 38.5 °F 43.0 °F 89% 29.84 in 5.0 mi South 19.6 mph 26.5 mph 0.02 in Rain Rain
1:53 PM 48.0 °F - 44.1 °F 86% 29.81 in 10.0 mi South 11.5 mph - 0.05 in   Overcast
2:53 PM 50.0 °F - 45.0 °F 83% 29.79 in 10.0 mi South 16.1 mph 26.5 mph 0.03 in   Overcast
3:36 PM 50.0 °F - 45.0 °F 83% 29.79 in 10.0 mi South 17.3 mph 25.3 mph N/A   Overcast
3:53 PM 50.0 °F - 45.0 °F 83% 29.80 in 10.0 mi SSE 15.0 mph 23.0 mph N/A   Overcast
4:53 PM 50.0 °F - 44.1 °F 80% 29.79 in 10.0 mi South 18.4 mph 23.0 mph 0.00 in   Overcast
5:53 PM 48.9 °F - 44.1 °F 83% 29.78 in 10.0 mi SSE 12.7 mph - 0.00 in   Overcast
6:53 PM 48.9 °F - 45.0 °F 86% 29.82 in 10.0 mi South 15.0 mph 23.0 mph 0.02 in   Overcast
7:53 PM 50.0 °F - 44.1 °F 80% 29.81 in 10.0 mi South 10.4 mph - N/A   Overcast
8:53 PM 50.0 °F - 44.1 °F 80% 29.83 in 10.0 mi Calm Calm - N/A   Overcast
9:40 PM 48.9 °F - 45.0 °F 86% 29.82 in 10.0 mi South 5.8 mph - 0.00 in Rain Light Rain
9:53 PM 48.9 °F - 45.0 °F 86% 29.84 in 10.0 mi SSE 4.6 mph - 0.00 in Rain Light Rain
10:53 PM 48.0 °F - 46.0 °F 93% 29.86 in 7.0 mi South 5.8 mph - 0.00 in Rain Light Rain
11:06 PM 48.0 °F - 46.9 °F 96% 29.85 in 9.0 mi South 5.8 mph - 0.00 in   Overcast
11:53 PM 48.0 °F - 46.9 °F 96% 29.87 in 7.0 mi Calm Calm - 0.00 in   Overcast